Weather History for KJRB - February, 2014

Change the Weather History Date:

Friday, February 21, 2014

  Actual Average (KNYC) Record (KNYC)
Temperature  
Mean Temperature 44 °F 36 °F  
Max Temperature 51 °F 43 °F 68 °F (1930)
Min Temperature 37 °F 30 °F 4 °F (1896)
Degree Days  
Heating Degree Days 21 29  
Month to date heating degree days 638  
Since 1 July heating degree days 3327  
Cooling Degree Days 0 0  
Month to date cooling degree days 0  
Year to date cooling degree days 0  
Moisture  
Dew Point 39 °F    
Average Humidity 95    
Maximum Humidity 100    
Minimum Humidity 81    
Precipitation  
Precipitation 0.11 in 0.11 in 1.86 in (1902)
Month to date precipitation 2.27  
Year to date precipitation 5.92  
Snow  
Snow 0.00 in 0.40 in 8.00 in (1929)
Month to date snowfall 7.1  
Since 1 July snowfall 19.2  
Snow Depth -    
Sea Level Pressure  
Sea Level Pressure 29.87 in    
Wind  
Wind Speed 11 mph (North)    
Max Wind Speed 21 mph    
Max Gust Speed 28 mph    
Visibility 5 miles    
Events Thunderstorm    
T = Trace of Precipitation, MM = Missing Value Source: NWS Daily Summary

Daily Weather History Graph

Daily Weather History Graph

Search for Another Location

Airport or City:

Trip Planner

Search our weather history database for the weather conditions in past years. The results will help you decide how hot, cold, wet, or windy it might be!

Date:

Astronomy

Feb. 21, 2014 Rise Set
Actual Time 6:41 AM EST 5:38 PM EST
Civil Twilight 6:14 AM EST 6:05 PM EST
Nautical Twilight 5:42 AM EST 6:37 PM EST
Astronomical Twilight 5:10 AM EST 7:09 PM EST
Moon No Moon Rise 10:01 AM EST (2/21)
Length of Visible Light 11h 51m
Length of Day
10h 56m
Waning Gibbous, 61% of the Moon is Illuminated
Feb 21
Waning Gibbous
Feb 22
Last Quarter
Mar 1
New
Mar 8
First Quarter
Mar 16
Full

Hourly Weather History & Observations

Time (EST) Temp. Windchill Dew Point Humidity Pressure Visibility Wind Dir Wind Speed Gust Speed Precip Events Conditions
12:15 AM 39.2 °F 31.6 °F 37.4 °F 93% 30.03 in 7.0 mi NNE 12.7 mph - N/A   Overcast
12:35 AM 39.2 °F 31.6 °F 37.4 °F 93% 30.02 in 6.0 mi NE 12.7 mph - N/A   Overcast
12:55 AM 39.2 °F 31.6 °F 37.4 °F 93% 30.02 in 5.0 mi NE 12.7 mph - N/A   Overcast
1:15 AM 39.2 °F 31.6 °F 37.4 °F 93% 30.01 in 5.0 mi NE 12.7 mph - N/A   Overcast
1:35 AM 39.2 °F 31.6 °F 37.4 °F 93% 30.00 in 4.0 mi NE 12.7 mph - N/A   Overcast
1:55 AM 39.2 °F 31.6 °F 37.4 °F 93% 29.99 in 3.0 mi NNE 12.7 mph - N/A   Overcast
2:15 AM 39.2 °F 32.0 °F 37.4 °F 93% 29.98 in 3.0 mi NE 11.5 mph - N/A   Overcast
2:35 AM 39.2 °F 32.0 °F 37.4 °F 93% 29.97 in 3.0 mi NE 11.5 mph - N/A   Overcast
2:55 AM 37.4 °F 30.3 °F 37.4 °F 100% 29.98 in 3.0 mi NE 10.4 mph - N/A   Overcast
3:15 AM 39.2 °F 33.0 °F 37.4 °F 93% 29.97 in 3.0 mi NE 9.2 mph - N/A   Overcast
3:35 AM 39.2 °F 32.5 °F 37.4 °F 93% 29.96 in 3.0 mi NE 10.4 mph - N/A   Overcast
3:55 AM 39.2 °F 32.0 °F 37.4 °F 93% 29.96 in 2.5 mi NE 11.5 mph - N/A   Overcast
4:15 AM 39.2 °F 32.5 °F 37.4 °F 93% 29.96 in 2.5 mi NNE 10.4 mph - N/A   Overcast
4:35 AM 39.2 °F 31.6 °F 37.4 °F 93% 29.96 in 3.0 mi NE 12.7 mph - N/A   Overcast
4:55 AM 39.2 °F 31.6 °F 37.4 °F 93% 29.96 in 2.0 mi NNE 12.7 mph - N/A   Overcast
5:15 AM 37.4 °F 30.8 °F 35.6 °F 93% 29.97 in 2.5 mi NE 9.2 mph - N/A   Overcast
5:35 AM 37.4 °F 28.5 °F 37.4 °F 100% 29.95 in 2.5 mi NE 15.0 mph - N/A   Overcast
5:55 AM 37.4 °F 28.9 °F 37.4 °F 100% 29.95 in 3.0 mi NE 13.8 mph 19.6 mph N/A   Overcast
6:15 AM 37.4 °F 28.5 °F 37.4 °F 100% 29.95 in 3.0 mi NE 15.0 mph - N/A   Overcast
6:35 AM 37.4 °F 28.5 °F 37.4 °F 100% 29.94 in 3.0 mi NE 15.0 mph - N/A   Overcast
6:55 AM 37.4 °F 29.3 °F 37.4 °F 100% 29.95 in 1.8 mi NNE 12.7 mph - N/A   Overcast
7:15 AM 37.4 °F 27.8 °F 37.4 °F 100% 29.94 in 1.8 mi NE 17.3 mph 21.9 mph N/A   Overcast
7:35 AM 37.4 °F 26.9 °F 37.4 °F 100% 29.92 in 3.0 mi NE 20.7 mph 24.2 mph N/A   Overcast
7:55 AM 37.4 °F 28.5 °F 37.4 °F 100% 29.93 in 3.0 mi NNE 15.0 mph 24.2 mph N/A   Overcast
8:15 AM 37.4 °F 28.9 °F 37.4 °F 100% 29.94 in 3.0 mi NNE 13.8 mph 17.3 mph N/A   Overcast
8:35 AM 37.4 °F 28.9 °F 37.4 °F 100% 29.93 in 3.0 mi NE 13.8 mph 20.7 mph N/A   Overcast
8:55 AM 37.4 °F 26.9 °F 37.4 °F 100% 29.92 in 3.0 mi NNE 20.7 mph 24.2 mph N/A   Overcast
9:15 AM 37.4 °F 27.5 °F 37.4 °F 100% 29.91 in 2.5 mi NNE 18.4 mph 21.9 mph N/A   Overcast
9:35 AM 37.4 °F 27.8 °F 37.4 °F 100% 29.90 in 2.5 mi NE 17.3 mph - N/A   Overcast
9:55 AM 37.4 °F 27.2 °F 37.4 °F 100% 29.88 in 2.0 mi NNE 19.6 mph 24.2 mph N/A   Overcast
10:15 AM 37.4 °F 28.5 °F 37.4 °F 100% 29.87 in 1.8 mi NE 15.0 mph - N/A   Overcast
10:35 AM 37.4 °F 27.8 °F 37.4 °F 100% 29.88 in 1.5 mi NE 17.3 mph - N/A   Overcast
10:55 AM 37.4 °F 29.3 °F 37.4 °F 100% 29.88 in 1.0 mi NNE 12.7 mph - N/A   Overcast
11:15 AM 37.4 °F 28.9 °F 35.6 °F 93% 29.86 in 0.8 mi NE 13.8 mph - N/A   Overcast
11:35 AM 37.4 °F 28.9 °F 37.4 °F 100% 29.84 in 0.8 mi NE 13.8 mph - N/A   Overcast
11:55 AM 39.2 °F 30.5 °F 37.4 °F 93% 29.82 in 0.5 mi NNE 16.1 mph - N/A   Overcast
12:15 PM 39.2 °F 30.8 °F 39.2 °F 100% 29.80 in 0.5 mi NE 15.0 mph - N/A   Overcast
12:35 PM 39.2 °F 31.2 °F 39.2 °F 100% 29.77 in 0.5 mi NNE 13.8 mph - N/A   Overcast
12:55 PM 39.2 °F 31.2 °F 37.4 °F 93% 29.75 in 0.2 mi NE 13.8 mph - N/A   Overcast
1:15 PM 39.2 °F 31.6 °F 39.2 °F 100% 29.73 in 0.5 mi NE 12.7 mph - N/A   Overcast
1:35 PM 39.2 °F 32.0 °F 39.2 °F 100% 29.72 in 0.2 mi NNE 11.5 mph - N/A   Overcast
1:55 PM 42.8 °F 36.6 °F 42.8 °F 100% 29.70 in 0.2 mi NE 11.5 mph - N/A   Overcast
2:15 PM 42.8 °F 37.5 °F 42.8 °F 100% 29.70 in 0.2 mi NNE 9.2 mph - N/A Thunderstorm Overcast
2:35 PM 44.6 °F 40.2 °F 42.8 °F 93% 29.69 in 1.5 mi NE 8.1 mph - N/A   Overcast
2:55 PM 48.2 °F - 46.4 °F 93% 29.67 in 3.0 mi NE 5.8 mph - N/A   Overcast
3:15 PM 48.2 °F - 46.4 °F 93% 29.69 in 4.0 mi Calm Calm - N/A Thunderstorm Overcast
3:35 PM 50.0 °F - 50.0 °F 100% 29.68 in 4.0 mi Calm Calm - 0.07 in   Overcast
3:55 PM 51.8 °F - 51.8 °F 100% 29.71 in 4.0 mi WNW 6.9 mph 27.6 mph 0.10 in   Overcast
4:15 PM 46.4 °F 45.2 °F 46.4 °F 100% 29.71 in 7.0 mi North 3.5 mph - 0.01 in   Overcast
4:35 PM 46.4 °F 44.3 °F 46.4 °F 100% 29.74 in 10.0 mi NNW 4.6 mph - 0.01 in   Overcast
4:55 PM 46.4 °F 45.2 °F 44.6 °F 93% 29.76 in 10.0 mi West 3.5 mph - 0.01 in   Overcast
5:15 PM 46.4 °F 44.3 °F 44.6 °F 93% 29.77 in 10.0 mi SW 4.6 mph - N/A   Overcast
5:35 PM 42.8 °F 40.1 °F 42.8 °F 100% 29.77 in 4.0 mi West 4.6 mph - N/A   Overcast
5:55 PM 42.8 °F 41.1 °F 41.0 °F 93% 29.77 in 9.0 mi SW 3.5 mph - N/A   Overcast
6:15 PM 44.6 °F 43.1 °F 42.8 °F 93% 29.79 in 10.0 mi West 3.5 mph - N/A   Overcast
6:35 PM 44.6 °F 40.7 °F 44.6 °F 100% 29.80 in 10.0 mi West 6.9 mph - N/A   Overcast
6:55 PM 44.6 °F 41.4 °F 44.6 °F 100% 29.81 in 10.0 mi West 5.8 mph - N/A   Overcast
7:15 PM 44.6 °F 41.4 °F 42.8 °F 93% 29.83 in 10.0 mi West 5.8 mph - N/A   Overcast
7:35 PM 44.6 °F 40.7 °F 42.8 °F 93% 29.83 in 10.0 mi West 6.9 mph - N/A   Overcast
7:55 PM 44.6 °F 41.4 °F 42.8 °F 93% 29.84 in 10.0 mi West 5.8 mph - N/A   Overcast
8:15 PM 44.6 °F 41.4 °F 41.0 °F 87% 29.86 in 10.0 mi West 5.8 mph - N/A   Overcast
8:35 PM 42.8 °F 38.6 °F 39.2 °F 87% 29.86 in 10.0 mi West 6.9 mph - N/A   Scattered Clouds
8:55 PM 42.8 °F 38.6 °F 39.2 °F 87% 29.86 in 10.0 mi WSW 6.9 mph - N/A   Clear
9:15 PM 42.8 °F 39.3 °F 39.2 °F 87% 29.87 in 10.0 mi West 5.8 mph - N/A   Clear
9:35 PM 42.8 °F 39.3 °F 37.4 °F 81% 29.88 in 10.0 mi West 5.8 mph - N/A   Clear
9:55 PM 42.8 °F 39.3 °F 37.4 °F 81% 29.90 in 10.0 mi West 5.8 mph - N/A   Clear
10:15 PM 42.8 °F 40.1 °F 37.4 °F 81% 29.91 in 10.0 mi West 4.6 mph - N/A   Clear
10:35 PM 42.8 °F 39.3 °F 37.4 °F 81% 29.91 in 10.0 mi West 5.8 mph - N/A   Clear
10:55 PM 42.8 °F 38.0 °F 37.4 °F 81% 29.91 in 10.0 mi West 8.1 mph - N/A   Clear
11:15 PM 42.8 °F 38.6 °F 37.4 °F 81% 29.92 in 10.0 mi West 6.9 mph - N/A   Clear
11:35 PM 41.0 °F 37.1 °F 37.4 °F 87% 29.93 in 10.0 mi WSW 5.8 mph - N/A   Clear
11:55 PM 41.0 °F 35.8 °F 37.4 °F 87% 29.94 in 10.0 mi WSW 8.1 mph - N/A   Clear